Regional Weather Roundup
Issued by NWS Portland, ME

Home | Current Version | Previous Version | Text Only | Print | Product List | Glossary On
Versions: 1 2 3 4 5 6 7 8 9 10 11 12 13 14 15 16 17 18 19 20 21 22 23 24 25 26 27 28 29 30 31 32 33 34 35 36 37 38 39 40 41 42 43 44 45 46 47 48 49 50
000
ASUS41 KGYX 211510
RWRGYX
WEATHER ROUNDUP FOR MAINE AND NEW HAMPSHIRE
NATIONAL WEATHER SERVICE GRAY ME
1100 AM EDT TUE APR 21 2015

MEZ002-005-006-010-012-015-018-020-021-024-026-027-029-211600-
MAINE

CITY           SKY/WX    TMP DP  RH WIND       PRES   REMARKS
PORTLAND       FOG       48  47  96 S5        29.56S VSB 1/2
SANFORD        CLOUDY    50  45  81 NW3       29.56R
BAR HARBOR     CLOUDY    46  45  93 SE10G26   29.67F
WISCASSET      FOG       48  48 100 SE8       29.59F VSB 3/4
ROCKLAND       CLOUDY    46  45  93 E22G28    29.59F
FRYEBURG       CLOUDY    49  46  90 N7        29.57F FOG
LEWISTONAUBURN CLOUDY    48  46  93 SE8       29.56F
AUGUSTA        LGT RAIN  48  47  96 SE8       29.58F VSB 1
WATERVILLE     CLOUDY    48  46  93 SE3       29.57F
BANGOR         CLOUDY    47  45  93 SE12G20   29.64F
GREENVILLE       N/A     40  40 100 SE21G30   29.57F
MILLINOCKET    LGT RAIN  44  40  85 E12G21    29.71F
HOULTON        LGT RAIN  40  37  89 SE15G28   29.75F
PRESQUE ISLE   CLOUDY    39  36  87 SE15G24   29.76F
FRENCHVILLE    LGT RAIN  37  35  92 SE17G26   29.75F
CARIBOU        LGT RAIN  41  38  89 SE15      29.76F
$$

NHZ002-005-008-009-011-012-014-211600-
NEW HAMPSHIRE

CITY           SKY/WX    TMP DP  RH WIND       PRES   REMARKS
PORTSMOUTH     CLOUDY    54  51  92 NW7       29.53R
ROCHESTER      CLOUDY    51  49  92 N3        29.55R
NASHUA         CLOUDY    53  51  93 NW3       29.58R
MANCHESTER     CLOUDY    52  49  89 NW5       29.56R
CONCORD        CLOUDY    51  48  89 NW6       29.57R
LACONIA        CLOUDY    48  45  87 N5        29.55S
PLYMOUTH       CLOUDY    49  49 100 CALM      29.56F
BERLIN         CLOUDY    48  43  82 N6        29.55F
WHITEFIELD     CLOUDY    51  43  74 E5        29.54S
JAFFREY        CLOUDY    52  48  86 VRB3      29.59R
KEENE          CLOUDY    54  46  76 S8        29.59R
LEBANON        CLOUDY    51  46  83 S3        29.56S
MT WASHINGTON  FOG       37  37 100 SW24G31     N/A  VSB 1/16
$$

VTZ005-007-008-211600-
VERMONT

CITY           SKY/WX    TMP DP  RH WIND       PRES   REMARKS
ST JOHNSBURY     N/A     48  46  93 MISG      29.54R
MONTPELIER     CLOUDY    49  46  90 S8        29.57F
BURLINGTON     DRIZZLE   52  48  86 S5        29.55R FOG
$$

MAZ007-012-024-CTZ003-RIZ002-NYZ038-NYZ072-211600-
SOUTHERN NEW ENGLAND AND NY

CITY           SKY/WX    TMP DP  RH WIND       PRES   REMARKS
BOSTON         MOSUNNY   65  57  75 SW12      29.55R
WORCESTER      CLOUDY    54  50  86 W12       29.59R
NANTUCKET      CLOUDY    53  50  89 S17       29.59S FOG
PROVIDENCE     MOSUNNY   67  57  70 SW9       29.57R
HARTFORD       LGT RAIN  55  50  83 NW7       29.62R
ALBANY         LGT RAIN  51  43  74 SW5       29.65S
NEW YORK CITY  MOSUNNY   58  47  66 NW8       29.66R
$$

ANZ081-ANZ082-ANZ150-NHZ014-MEZ023>029-211600-
COASTAL MARINE OBSERVATIONS

STATION/POSITION TIME  TEMP    WIND        PRES    WAVE
                       AIR SEA DIR/SP/G            HT/PER
                 (UTC) (F)     (DEG/KT/KT) (MB)    (FT/S)
MOUNT DESERT ROC 1500   44     100/ 34/ 37 1003.5F
MATINICUS ROCK   1400   45     130/ 38/ 43 1001.5F
WELLS            1400   46 41  120/  3/  3 1000.0R
ISLE OF SHOALS   1400   45      CALM  /  1  999.8R
CASHES LEDGE BUO 1450   45 40              1001.0S  13/ 9
$$

.............KEY..............
   WCI - WIND CHILL
   TC  - TEMPERATURE IN CELSIUS
   VSB - VISIBILITY IN MILES
   HX  - HEAT INDEX
   FAIR- INDICATES FEW OR NO CLOUDS BELOW 12,000 FT, WITH NO
         SIGNIFICANT WEATHER AND/OR OBSTRUCTIONS TO VISIBILITY.





USA.gov is the U.S. government's official web portal to all federal, state and local government web resources and services.